When you browse on this site, cookies collect data to enhance your experience and personalize the content and advertising you see.
Visit our Privacy Policy to learn more. By continuing to use the site, you agree to this use of cookies and data.
  • In Netherlands
  • List of Countries
  • For 7 days
  • Water Temperature
  • Satellite Maps
  • Weather Map
  • Weather Widgets
  • user-avatar
    Login

    Hourly Weather Northallerton

    Today, 27 June, Thursday

    Time Temperature Precipitation Wind Pressure Humidity
    00:00 +9°C° 0 mm 1 mps 770 mmHg 88%
    01:00 +8°C° 0 mm 1 mps 770 mmHg 86%
    02:00 +8°C° 0 mm 1 mps 770 mmHg 83%
    03:00 +8°C° 0 mm 1 mps 770 mmHg 81%
    04:00 +10°C° 0 mm 1 mps 770 mmHg 79%
    05:00 +10°C° 0 mm 0 mps 770 mmHg 77%
    06:00 +12°C° 0 mm 0 mps 770 mmHg 75%
    07:00 +14°C° 0 mm 1 mps 770 mmHg 74%
    08:00 +16°C° 0 mm 1 mps 770 mmHg 72%
    09:00 +19°C° 0 mm 1 mps 771 mmHg 70%
    10:00 +19°C° 0 mm 2 mps 771 mmHg 68%
    11:00 +20°C° 0 mm 2 mps 770 mmHg 66%
    12:00 +21°C° 0 mm 3 mps 770 mmHg 65%
    13:00 +21°C° 0 mm 3 mps 770 mmHg 66%
    14:00 +21°C° 0 mm 3 mps 770 mmHg 67%
    15:00 +20°C° 0 mm 3 mps 770 mmHg 68%
    16:00 +20°C° 0 mm 3 mps 769 mmHg 72%
    17:00 +19°C° 0 mm 3 mps 769 mmHg 76%
    18:00 +18°C° 0 mm 3 mps 769 mmHg 79%
    19:00 +16°C° 0 mm 3 mps 769 mmHg 84%
    20:00 +14°C° 0 mm 2 mps 769 mmHg 89%
    21:00 +12°C° 0 mm 1 mps 769 mmHg 94%
    22:00 +11°C° 0 mm 1 mps 769 mmHg 95%
    23:00 +11°C° 0 mm 1 mps 769 mmHg 95%

    Tomorrow, 28 June, Friday

    Time Temperature Precipitation Wind Pressure Humidity
    00:00 +10°C° 0 mm 1 mps 769 mmHg 96%
    01:00 +10°C° 0 mm 1 mps 769 mmHg 96%
    02:00 +10°C° 0 mm 1 mps 769 mmHg 96%
    03:00 +10°C° 0 mm 1 mps 768 mmHg 96%
    04:00 +11°C° 0 mm 1 mps 768 mmHg 95%
    05:00 +12°C° 0 mm 1 mps 768 mmHg 94%
    06:00 +13°C° 0 mm 1 mps 767 mmHg 92%
    07:00 +14°C° 0 mm 1 mps 767 mmHg 87%
    08:00 +16°C° 0 mm 2 mps 767 mmHg 82%
    09:00 +17°C° 0 mm 2 mps 767 mmHg 78%
    10:00 +18°C° 0 mm 2 mps 767 mmHg 75%
    11:00 +19°C° 0 mm 3 mps 766 mmHg 72%
    12:00 +21°C° 0 mm 4 mps 766 mmHg 69%
    13:00 +21°C° 0 mm 4 mps 766 mmHg 70%
    14:00 +21°C° 0 mm 4 mps 765 mmHg 70%
    15:00 +21°C° 0 mm 4 mps 765 mmHg 70%
    16:00 +20°C° 0 mm 4 mps 764 mmHg 73%
    17:00 +19°C° 0 mm 4 mps 764 mmHg 75%
    18:00 +18°C° 0 mm 4 mps 763 mmHg 78%
    19:00 +16°C° 0 mm 3 mps 763 mmHg 83%
    20:00 +14°C° 0 mm 3 mps 763 mmHg 88%
    21:00 +13°C° 0 mm 2 mps 763 mmHg 93%
    22:00 +12°C° 0 mm 2 mps 763 mmHg 93%
    23:00 +12°C° 0 mm 2 mps 763 mmHg 94%

    Day after tomorrow, 29 June, Saturday

    Time Temperature Precipitation Wind Pressure Humidity
    00:00 +10°C° 0 mm 2 mps 762 mmHg 95%
    01:00 +10°C° 0 mm 2 mps 762 mmHg 95%
    02:00 +10°C° 0 mm 2 mps 761 mmHg 95%
    03:00 +9°C° 0 mm 2 mps 761 mmHg 95%
    04:00 +10°C° 0 mm 2 mps 761 mmHg 93%
    05:00 +11°C° 0 mm 3 mps 760 mmHg 90%
    06:00 +13°C° 0 mm 3 mps 759 mmHg 88%
    07:00 +14°C° 0 mm 4 mps 759 mmHg 85%
    08:00 +17°C° 0 mm 4 mps 759 mmHg 83%
    09:00 +19°C° 0 mm 4 mps 758 mmHg 80%
    10:00 +21°C° 0 mm 4 mps 758 mmHg 78%
    11:00 +22°C° 0 mm 4 mps 757 mmHg 76%
    12:00 +23°C° 0 mm 5 mps 757 mmHg 75%
    13:00 +25°C° 0 mm 5 mps 756 mmHg 75%
    14:00 +26°C° 0 mm 5 mps 756 mmHg 75%
    15:00 +27°C° 0 mm 4 mps 756 mmHg 75%
    16:00 +25°C° 0 mm 4 mps 755 mmHg 79%
    17:00 +23°C° 0 mm 4 mps 755 mmHg 83%
    18:00 +22°C° 0 mm 3 mps 754 mmHg 87%
    19:00 +21°C° 0.2 mm 3 mps 754 mmHg 85%
    20:00 +19°C° 0.2 mm 3 mps 754 mmHg 84%
    21:00 +18°C° 0.2 mm 3 mps 754 mmHg 83%
    22:00 +17°C° 0 mm 3 mps 754 mmHg 85%
    23:00 +15°C° 0 mm 4 mps 754 mmHg 87%

    30 June, Sunday

    Time Temperature Precipitation Wind Pressure Humidity
    00:00 +14°C° 0 mm 5 mps 754 mmHg 90%
    01:00 +13°C° 0 mm 4 mps 754 mmHg 90%
    02:00 +13°C° 0 mm 4 mps 754 mmHg 91%
    03:00 +13°C° 0 mm 4 mps 754 mmHg 92%
    04:00 +14°C° 0 mm 4 mps 755 mmHg 90%
    05:00 +14°C° 0 mm 4 mps 755 mmHg 89%
    06:00 +15°C° 0 mm 4 mps 755 mmHg 87%
    07:00 +16°C° 0 mm 5 mps 755 mmHg 82%
    08:00 +17°C° 0 mm 6 mps 755 mmHg 78%
    09:00 +19°C° 0 mm 6 mps 756 mmHg 73%
    10:00 +18°C° 0 mm 7 mps 756 mmHg 72%
    11:00 +20°C° 0 mm 7 mps 756 mmHg 70%
    12:00 +20°C° 0 mm 8 mps 756 mmHg 69%
    13:00 +20°C° 0 mm 8 mps 755 mmHg 69%
    14:00 +20°C° 0 mm 8 mps 755 mmHg 68%
    15:00 +20°C° 0 mm 8 mps 755 mmHg 68%
    16:00 +18°C° 0 mm 8 mps 755 mmHg 71%
    17:00 +18°C° 0 mm 7 mps 756 mmHg 74%
    18:00 +17°C° 0 mm 7 mps 756 mmHg 76%
    19:00 +16°C° 0 mm 6 mps 756 mmHg 80%
    20:00 +15°C° 0 mm 5 mps 756 mmHg 83%
    21:00 +13°C° 0 mm 4 mps 757 mmHg 86%
    22:00 +13°C° 0 mm 4 mps 757 mmHg 87%
    23:00 +12°C° 0 mm 4 mps 757 mmHg 88%

    1 July, Monday

    Time Temperature Precipitation Wind Pressure Humidity
    00:00 +11°C° 0 mm 4 mps 757 mmHg 89%
    01:00 +11°C° 0 mm 4 mps 757 mmHg 88%
    02:00 +11°C° 0 mm 4 mps 757 mmHg 88%
    03:00 +10°C° 0 mm 4 mps 757 mmHg 87%
    04:00 +10°C° 0 mm 5 mps 757 mmHg 85%
    05:00 +12°C° 0 mm 5 mps 757 mmHg 84%
    06:00 +13°C° 0 mm 6 mps 757 mmHg 82%
    07:00 +13°C° 0 mm 6 mps 757 mmHg 80%
    08:00 +14°C° 0 mm 7 mps 757 mmHg 78%
    09:00 +14°C° 0 mm 7 mps 758 mmHg 76%
    10:00 +15°C° 0 mm 8 mps 758 mmHg 75%
    11:00 +16°C° 0 mm 8 mps 758 mmHg 73%
    12:00 +16°C° 0 mm 8 mps 758 mmHg 72%
    13:00 +17°C° 0 mm 8 mps 758 mmHg 72%
    14:00 +17°C° 0 mm 8 mps 758 mmHg 72%
    15:00 +17°C° 0 mm 8 mps 758 mmHg 71%
    16:00 +17°C° 0 mm 7 mps 759 mmHg 73%
    17:00 +16°C° 0 mm 7 mps 759 mmHg 75%
    18:00 +16°C° 0 mm 6 mps 760 mmHg 78%
    19:00 +15°C° 0 mm 5 mps 760 mmHg 81%
    20:00 +14°C° 0 mm 5 mps 761 mmHg 85%
    21:00 +12°C° 0 mm 4 mps 762 mmHg 88%
    22:00 +12°C° 0 mm 3 mps 762 mmHg 89%
    23:00 +11°C° 0 mm 3 mps 763 mmHg 90%

    2 July, Tuesday

    Time Temperature Precipitation Wind Pressure Humidity
    00:00 +10°C° 0 mm 2 mps 763 mmHg 92%
    01:00 +10°C° 0 mm 2 mps 763 mmHg 91%
    02:00 +11°C° 0 mm 1 mps 764 mmHg 90%
    03:00 +11°C° 0 mm 1 mps 764 mmHg 89%
    04:00 +10°C° 0 mm 0 mps 764 mmHg 87%
    05:00 +11°C° 0 mm 0 mps 765 mmHg 86%
    06:00 +11°C° 0 mm 0 mps 765 mmHg 84%
    07:00 +13°C° 0 mm 1 mps 765 mmHg 80%
    08:00 +15°C° 0 mm 1 mps 765 mmHg 75%
    09:00 +16°C° 0 mm 1 mps 765 mmHg 71%
    10:00 +16°C° 0 mm 2 mps 766 mmHg 68%
    11:00 +17°C° 0 mm 2 mps 766 mmHg 66%
    12:00 +18°C° 0 mm 2 mps 766 mmHg 63%
    13:00 +18°C° 0 mm 2 mps 766 mmHg 63%
    14:00 +18°C° 0 mm 2 mps 766 mmHg 63%
    15:00 +18°C° 0 mm 2 mps 765 mmHg 62%
    16:00 +18°C° 0 mm 2 mps 765 mmHg 66%
    17:00 +17°C° 0 mm 2 mps 765 mmHg 70%
    18:00 +17°C° 0 mm 2 mps 765 mmHg 73%
    19:00 +16°C° 0 mm 2 mps 765 mmHg 77%
    20:00 +14°C° 0 mm 1 mps 766 mmHg 81%
    21:00 +13°C° 0 mm 1 mps 766 mmHg 85%
    22:00 +12°C° 0 mm 1 mps 766 mmHg 86%
    23:00 +11°C° 0 mm 1 mps 766 mmHg 87%
    Show more